This demonstration page uses our WeatherBlox Daily Observations layout. Learn more.

Left ArrowRight Arrow

38.80484, -77.04692

Hourly Observations for November 8, 2020

Temp ( °F °C ) Dew Point ( °F °C ) Humidity (%) Winds ( mph kmh ) Pressure ( in mb ) Visibility ( mi km ) Precip ( " mm )
12:52 am 00:52 Mostly Clear 53 11.7 48 8.9 83 83 Calm 30.33 1027 7 11.26538 0 0
1:52 am 01:52 Mostly Clear 51 10.6 48 8.9 89 89 SSW 3 6 30.33 1027 7 11.26538 0 0
2:52 am 02:52 Mostly Clear 52 11.1 48 8.9 86 86 Calm 30.33 1027 7 11.26538 0 0
3:52 am 03:52 Clear 51 10.6 48 8.9 89 89 Calm 30.34 1027 7 11.26538 0 0
4:52 am 04:52 Clear 50 10 47 8.3 89 89 Calm 30.35 1028 7 11.26538 0 0
5:52 am 05:52 Clear 50 10 48 8.9 93 93 SSW 3 6 30.36 1028 7 11.26538 0 0
6:52 am 06:52 Partly Cloudy with Mist and Fog 50 10 48 8.9 93 93 Calm 30.37 1029 6 9.65604 0 0
7:52 am 07:52 Partly Cloudy with Mist and Fog 53 11.7 50 10 89 89 Calm 30.4 1029 5 8.0467 0 0
8:52 am 08:52 Sunny with Mist and Fog 55 12.8 51 10.6 87 87 SSE 3 6 30.41 1030 6 9.65604 0 0
9:52 am 09:52 Sunny 60 15.6 52 11.1 75 75 Calm 30.41 1030 7 11.26538 0 0
10:52 am 10:52 Sunny 64 17.8 52 11.1 65 65 Calm 30.4 1030 9 14.48406 0 0
11:52 am 11:52 Sunny 70 21.1 53 11.7 55 55 Calm 30.38 1029 10 16.0934 0 0
12:52 pm 12:52 Sunny 72 22.2 55 12.8 55 55 Calm 30.37 1028 10 16.0934 0 0
1:52 pm 13:52 Sunny 74 23.3 57 13.9 56 56 S 8 13 30.36 1028 10 16.0934 0 0
2:52 pm 14:52 Mostly Sunny 74 23.3 57 13.9 56 56 SSE 9 15 30.36 1028 10 16.0934 0 0
3:52 pm 15:52 Partly Cloudy 73 22.8 57 13.9 57 57 S 5 7 30.36 1028 10 16.0934 0 0
4:52 pm 16:52 Partly Cloudy 67 19.4 55 12.8 66 66 S 5 7 30.36 1028 10 16.0934 0 0
5:52 pm 17:52 Mostly Clear 68 20 56 13.3 65 65 Calm 30.37 1028 10 16.0934 0 0
6:52 pm 18:52 Mostly Clear 65 18.3 56 13.3 73 73 S 3 6 30.37 1028 10 16.0934 0 0
7:52 pm 19:52 Mostly Clear 61 16.1 56 13.3 84 84 Calm 30.37 1028 10 16.0934 0 0
8:52 pm 20:52 Partly Cloudy 59 15 56 13.3 90 90 Calm 30.38 1029 10 16.0934 0 0
9:52 pm 21:52 Partly Cloudy 58 14.4 56 13.3 93 93 S 5 7 30.39 1029 10 16.0934 0 0
10:52 pm 22:52 Partly Cloudy 58 14.4 56 13.3 93 93 SSW 3 6 30.38 1029 10 16.0934 0 0
11:52 pm 23:52 Mostly Clear 57 13.9 55 12.8 93 93 Calm 30.37 1028 10 16.0934 0 0

Powered by AerisWeather